DW0427 Weather Reports


Display with metric or nautical units.
time (UTC)temp
F
wind
direction
speed
MPH
gust
MPH
rain 1hr
in
rain 24hr
in
rain mn
in
humidity
%
barometer
mb
20180921073357 45 254 9.0 20.0 0.04 0.82 0.13 92 1003.8
20180921073158 45 255 9.0 20.0 0.03 0.81 0.12 91 1003.9
20180921072958 45 256 9.0 20.0 0.03 0.81 0.12 91 1003.9
20180921072758 45 254 10.0 21.0 0.03 0.81 0.12 91 1003.9
20180921072558 46 253 10.0 21.0 0.03 0.81 0.12 91 1003.9
20180921072358 46 253 10.0 21.0 0.02 0.80 0.12 91 1003.8
20180921072157 46 252 10.0 23.0 0.02 0.80 0.11 90 1003.7
20180921071959 46 249 10.0 23.0 0.02 0.80 0.11 90 1003.8
20180921071758 46 248 9.0 23.0 0.02 0.80 0.11 90 1003.8
20180921071558 46 248 9.0 23.0 0.01 0.79 0.10 90 1003.6
20180921071358 46 246 8.0 23.0 0.01 0.79 0.10 89 1003.7
20180921071158 46 246 8.0 22.0 0.01 0.79 0.10 89 1003.7
20180921070958 46 248 8.0 22.0 0.00 0.78 0.09 89 1003.6
20180921070758 46 250 7.0 16.0 0.00 0.78 0.09 89 1003.5
20180921070558 46 251 7.0 16.0 0.00 0.78 0.09 89 1003.6
20180921070358 45 251 6.0 16.0 0.01 0.78 0.09 89 1003.5
20180921070159 45 251 6.0 16.0 0.01 0.78 0.09 89 1003.5
20180921065958 45 252 5.0 14.0 0.02 0.78 0.09 90 1003.5
20180921065758 45 251 5.0 14.0 0.02 0.78 0.09 90 1003.5
20180921065558 45 251 5.0 13.0 0.03 0.78 0.09 90 1003.5
20180921065358 45 252 5.0 13.0 0.03 0.78 0.09 90 1003.5
20180921065158 44 252 5.0 12.0 0.03 0.78 0.09 90 1003.4
20180921064958 44 253 5.0 12.0 0.03 0.78 0.09 90 1003.3
20180921064759 44 255 5.0 12.0 0.03 0.78 0.09 90 1003.4
20180921064559 44 257 5.0 12.0 0.03 0.78 0.09 90 1003.3
20180921064358 44 260 5.0 12.0 0.04 0.78 0.09 90 1003.4
20180921064158 44 263 5.0 12.0 0.04 0.78 0.09 90 1003.5
20180921063959 44 265 5.0 11.0 0.04 0.78 0.09 90 1003.4
20180921063758 44 266 6.0 13.0 0.05 0.78 0.09 90 1003.4
20180921063558 44 268 6.0 13.0 0.06 0.78 0.09 90 1003.4
20180921063359 44 269 7.0 13.0 0.06 0.78 0.09 90 1003.3
20180921063159 44 269 7.0 19.0 0.07 0.78 0.09 90 1003.3
20180921062958 44 269 8.0 19.0 0.07 0.78 0.09 90 1003.3
20180921062758 44 267 8.0 23.0 0.07 0.78 0.09 90 1003.3
20180921062559 44 267 9.0 23.0 0.07 0.78 0.09 90 1003.3
20180921062358 44 263 9.0 24.0 0.07 0.78 0.09 91 1003.2
20180921062158 44 261 9.0 24.0 0.07 0.78 0.09 91 1003.3
20180921061959 44 260 9.0 24.0 0.07 0.78 0.09 91 1003.3
20180921061759 44 261 9.0 24.0 0.07 0.78 0.09 91 1003.4
20180921061558 44 261 8.0 26.0 0.07 0.78 0.09 91 1003.5
20180921061358 44 262 8.0 26.0 0.07 0.78 0.09 91 1003.5
20180921061159 44 263 7.0 26.0 0.07 0.78 0.09 91 1003.6
20180921061000 44 262 6.0 26.0 0.07 0.78 0.09 91 1003.5
20180921060759 44 259 6.0 26.0 0.07 0.78 0.09 91 1003.5
20180921060559 44 255 6.0 18.0 0.07 0.78 0.09 91 1003.5
20180921060359 44 254 6.0 18.0 0.06 0.77 0.08 91 1003.5
20180921060159 44 256 6.0 18.0 0.06 0.77 0.08 91 1003.5
20180921055959 44 258 7.0 18.0 0.05 0.76 0.07 91 1003.5
20180921055759 44 264 8.0 18.0 0.05 0.76 0.07 91 1003.5
20180921055559 44 269 9.0 12.0 0.04 0.75 0.06 91 1003.5
20180921055359 44 268 10.0 18.0 0.04 0.75 0.06 91 1003.6
20180921055159 44 270 11.0 22.0 0.04 0.75 0.06 90 1003.5
20180921054959 44 270 11.0 22.0 0.04 0.75 0.06 90 1003.5
20180921054759 44 270 11.0 22.0 0.04 0.75 0.06 90 1003.6
20180921054559 44 270 10.0 27.0 0.04 0.75 0.06 90 1003.6
20180921054359 44 270 9.0 27.0 0.03 0.74 0.05 90 1003.5
20180921054159 44 269 8.0 27.0 0.03 0.74 0.05 90 1003.5
20180921053959 44 267 7.0 27.0 0.03 0.74 0.05 89 1003.5
20180921053759 44 266 6.0 27.0 0.02 0.73 0.04 89 1003.5
20180921053559 44 266 6.0 26.0 0.01 0.72 0.03 89 1003.5
20180921053359 44 268 6.0 16.0 0.01 0.72 0.03 89 1003.5
20180921053159 44 267 6.0 16.0 0.00 0.71 0.02 88 1003.2
20180921052959 44 266 7.0 16.0 0.00 0.71 0.02 88 1003.0
20180921052759 44 268 7.0 14.0 0.00 0.71 0.02 88 1002.9
20180921052559 44 262 8.0 16.0 0.00 0.71 0.02 88 1002.9
20180921052359 44 260 8.0 18.0 0.00 0.71 0.02 88 1002.9
20180921052159 44 257 8.0 18.0 0.00 0.71 0.02 88 1002.9
20180921051959 44 254 8.0 18.0 0.00 0.71 0.02 88 1002.9
20180921051759 44 249 8.0 18.0 0.00 0.71 0.02 88 1002.8
20180921051559 45 251 8.0 18.0 0.00 0.71 0.02 89 1002.8
20180921051359 45 249 8.0 20.0 0.00 0.71 0.02 89 1002.8
20180921051159 45 252 8.0 20.0 0.00 0.71 0.02 89 1002.7
20180921050959 45 255 8.0 20.0 0.00 0.71 0.02 89 1002.8
20180921050759 45 257 8.0 20.0 0.00 0.71 0.02 89 1002.8
20180921050559 45 257 8.0 20.0 0.00 0.71 0.02 89 1002.8
20180921050359 45 256 8.0 19.0 0.00 0.71 0.02 89 1002.8
20180921050200 44 255 7.0 19.0 0.00 0.71 0.02 89 1002.7
20180921045959 44 252 6.0 19.0 0.00 0.71 0.02 89 1002.8
20180921045759 44 251 6.0 19.0 0.00 0.71 0.02 89 1002.8
20180921045559 44 247 6.0 19.0 0.00 0.71 0.02 89 1002.8
20180921045359 44 245 5.0 19.0 0.00 0.71 0.02 89 1002.8
20180921045159 44 240 5.0 14.0 0.00 0.71 0.02 89 1002.8
20180921045000 44 239 5.0 14.0 0.00 0.71 0.02 89 1002.8
20180921044759 44 239 5.0 13.0 0.01 0.71 0.02 90 1002.8
20180921044559 44 241 5.0 13.0 0.01 0.71 0.02 90 1002.9
20180921044359 44 242 5.0 12.0 0.01 0.71 0.02 90 1002.8
20180921044159 44 245 5.0 12.0 0.01 0.71 0.02 90 1002.9
20180921043959 44 252 5.0 15.0 0.01 0.71 0.02 90 1002.8
20180921043759 44 256 5.0 15.0 0.01 0.71 0.02 90 1002.8
20180921043559 44 258 4.0 15.0 0.01 0.71 0.02 90 1003.0
20180921043359 44 259 4.0 15.0 0.01 0.71 0.02 90 1002.9
20180921043159 44 260 3.0 15.0 0.01 0.71 0.02 90 1003.0
20180921043000 44 259 3.0 15.0 0.01 0.71 0.02 90 1002.9
20180921042759 44 261 3.0 11.0 0.01 0.71 0.02 90 1003.0
20180921042559 44 258 3.0 11.0 0.01 0.71 0.02 90 1003.0
20180921042359 44 258 4.0 9.0 0.01 0.71 0.02 90 1003.0
20180921042200 44 257 4.0 9.0 0.01 0.71 0.02 90 1003.0
20180921042000 44 257 4.0 12.0 0.01 0.71 0.02 90 1003.0
20180921041759 44 258 4.0 12.0 0.01 0.71 0.02 90 1002.9
20180921041559 44 258 5.0 13.0 0.01 0.71 0.02 90 1002.8
20180921041359 44 257 5.0 13.0 0.01 0.71 0.02 90 1002.8
20180921041200 44 255 5.0 13.0 0.01 0.71 0.02 90 1002.7
20180921040959 44 255 5.0 13.0 0.01 0.71 0.02 90 1002.7
20180921040759 44 256 5.0 13.0 0.01 0.71 0.02 90 1002.7
20180921040559 44 256 5.0 13.0 0.01 0.71 0.02 90 1002.7
20180921040359 44 257 5.0 13.0 0.01 0.71 0.02 90 1002.7
20180921040159 44 257 5.0 13.0 0.01 0.71 0.02 90 1002.7
20180921040000 44 256 5.0 13.0 0.01 0.71 0.02 90 1002.8
20180921035759 44 254 5.0 12.0 0.01 0.71 0.02 90 1002.7
20180921035559 44 253 6.0 13.0 0.01 0.71 0.02 90 1002.7
20180921035400 44 253 6.0 14.0 0.01 0.71 0.02 90 1002.7
20180921035159 44 254 7.0 14.0 0.01 0.71 0.02 90 1002.7
20180921034959 44 257 7.0 14.0 0.00 0.70 0.01 90 1002.7
20180921034759 44 259 7.0 14.0 0.00 0.70 0.01 90 1002.8
20180921034601 44 261 7.0 14.0 0.00 0.70 0.01 90 1002.7
20180921034400 44 265 7.0 14.0 0.00 0.70 0.01 90 1002.7
20180921034200 44 266 7.0 14.0 0.00 0.70 0.01 90 1002.8
20180921033959 44 266 7.0 14.0 0.00 0.70 0.01 90 1002.8
20180921033759 44 267 7.0 14.0 0.00 0.70 0.01 90 1002.9
20180921033600 44 267 7.0 16.0 0.00 0.70 0.01 90 1002.9
20180921033400 44 266 7.0 18.0 0.00 0.70 0.01 90 1002.8
20180921033200 44 267 7.0 18.0 0.00 0.70 0.01 90 1002.9
20180921032959 44 267 7.0 18.0 0.00 0.70 0.01 90 1002.9
20180921032759 44 264 7.0 18.0 0.00 0.70 0.01 90 1002.8
20180921032600 44 264 7.0 18.0 0.00 0.70 0.01 90 1002.9
20180921032400 44 267 7.0 21.0 0.00 0.70 0.01 90 1002.9
20180921032159 44 266 7.0 21.0 0.00 0.70 0.01 90 1002.9
20180921031959 44 266 7.0 21.0 0.00 0.70 0.01 89 1002.9
20180921031800 44 268 7.0 21.0 0.00 0.70 0.01 89 1002.9
20180921031600 44 269 7.0 21.0 0.00 0.70 0.01 89 1002.9
20180921031359 44 268 7.0 19.0 0.00 0.70 0.01 89 1002.9
20180921031159 44 269 7.0 19.0 0.00 0.70 0.01 89 1002.9
20180921031000 44 268 7.0 14.0 0.00 0.70 0.01 89 1002.9
20180921030800 44 267 7.0 14.0 0.00 0.70 0.01 89 1002.8
20180921030600 44 266 7.0 14.0 0.00 0.70 0.01 88 1002.8
20180921030359 44 267 7.0 14.0 0.00 0.70 0.01 88 1002.8
20180921030200 44 268 7.0 19.0 0.00 0.70 0.01 88 1002.8
20180921030000 44 269 7.0 19.0 0.00 0.70 0.01 88 1002.7
20180921025800 44 268 7.0 19.0 0.00 0.70 0.01 88 1002.8
20180921025559 44 268 7.0 19.0 0.00 0.70 0.01 88 1002.5
20180921025400 44 268 7.0 19.0 0.00 0.70 0.01 88 1002.5
20180921025200 44 266 6.0 15.0 0.00 0.70 0.01 89 1002.5
20180921025000 44 267 6.0 15.0 0.00 0.70 0.01 89 1002.3
20180921024800 44 267 7.0 15.0 0.00 0.70 0.01 89 1002.5
20180921024600 44 268 7.0 15.0 0.00 0.70 0.01 89 1002.4
20180921024359 44 268 7.0 14.0 0.00 0.70 0.01 89 1002.3
20180921024200 44 271 7.0 14.0 0.00 0.70 0.01 89 1002.3
20180921024000 44 275 7.0 14.0 0.00 0.70 0.01 89 1002.2
20180921023800 44 277 7.0 14.0 0.00 0.70 0.01 89 1002.3
20180921023600 44 276 6.0 14.0 0.00 0.70 0.01 89 1002.2
20180921023400 44 277 6.0 14.0 0.00 0.70 0.01 89 1002.2
20180921023200 44 273 6.0 14.0 0.00 0.70 0.01 89 1002.2
20180921023000 44 270 5.0 14.0 0.00 0.70 0.01 89 1002.2
20180921022800 44 269 5.0 14.0 0.00 0.70 0.01 89 1002.2
20180921022600 44 268 5.0 11.0 0.00 0.70 0.01 89 1002.2
20180921022401 44 268 5.0 11.0 0.00 0.70 0.01 90 1002.2
20180921022200 44 268 5.0 11.0 0.01 0.70 0.01 90 1002.2
20180921022000 44 269 5.0 11.0 0.01 0.70 0.01 90 1002.2
20180921021800 44 269 5.0 14.0 0.01 0.70 0.01 89 1002.2
20180921021600 44 269 5.0 14.0 0.01 0.70 0.01 89 1002.2
20180921021400 44 269 5.0 14.0 0.01 0.70 0.01 89 1002.2
20180921021200 44 270 5.0 14.0 0.01 0.70 0.01 89 1002.2
20180921021000 44 270 5.0 14.0 0.01 0.70 0.01 90 1002.3
20180921020800 44 271 6.0 13.0 0.01 0.70 0.01 89 1002.3
20180921020600 44 273 6.0 14.0 0.01 0.70 0.01 89 1002.3
20180921020401 44 275 7.0 14.0 0.01 0.70 0.01 89 1002.2
20180921020200 44 279 7.0 14.0 0.01 0.70 0.01 89 1002.1
20180921020000 44 280 8.0 20.0 0.01 0.70 0.01 89 1002.1
20180921015800 44 282 8.0 20.0 0.01 0.70 0.01 89 1002.0
20180921015601 44 284 7.0 20.0 0.01 0.70 0.01 89 1002.0
20180921015401 44 286 7.0 20.0 0.01 0.70 0.01 89 1002.1
20180921015200 44 286 7.0 20.0 0.01 0.70 0.01 89 1002.0
20180921015000 45 288 7.0 12.0 0.01 0.70 0.01 89 1002.1
20180921014801 45 289 7.0 12.0 0.01 0.70 0.01 89 1002.1
20180921014602 45 288 7.0 12.0 0.01 0.70 0.01 89 1002.1
20180921014401 45 287 7.0 14.0 0.01 0.70 0.01 89 1002.1
20180921014201 45 284 8.0 14.0 0.01 0.70 0.01 89 1002.1
20180921014001 45 281 9.0 14.0 0.01 0.70 0.01 89 1002.1
20180921013801 45 280 10.0 14.0 0.01 0.70 0.01 89 1002.1
20180921013600 45 279 11.0 14.0 0.01 0.70 0.01 89 1002.1
20180921013400 45 281 11.0 22.0 0.01 0.70 0.01 89 1002.1
20180921013201 45 283 12.0 22.0 0.01 0.70 0.01 89 1002.1
20180921013001 45 285 12.0 22.0 0.01 0.70 0.01 89 1002.0
20180921012801 45 286 12.0 22.0 0.01 0.70 0.01 89 1002.1
20180921012601 45 287 12.0 22.0 0.01 0.70 0.01 89 1002.0
20180921012401 45 286 11.0 23.0 0.01 0.70 0.01 89 1001.9
20180921012202 45 286 11.0 23.0 0.00 0.69 0.00 89 1001.9
20180921012001 45 285 11.0 23.0 0.00 0.69 0.00 89 1001.7
20180921011801 45 285 10.0 23.0 0.00 0.69 0.00 89 1001.7
20180921011601 45 283 10.0 23.0 0.00 0.69 0.00 89 1001.6
20180921011401 45 283 9.0 20.0 0.00 0.69 0.00 89 1001.6
20180921011201 45 282 9.0 20.0 0.00 0.69 0.00 89 1001.5
20180921011002 45 281 8.0 20.0 0.00 0.69 0.00 89 1001.6
20180921010802 44 280 8.0 20.0 0.00 0.69 0.00 90 1001.6
20180921010601 44 279 7.0 20.0 0.00 0.69 0.00 90 1001.5
20180921010401 44 278 7.0 18.0 0.00 0.69 0.00 90 1001.4
20180921010202 44 277 7.0 18.0 0.00 0.69 0.00 90 1001.5
20180921010001 44 277 6.0 18.0 0.00 0.69 0.00 90 1001.6
20180921005802 44 276 6.0 18.0 0.00 0.69 0.00 91 1001.6
20180921005601 44 275 6.0 14.0 0.00 0.69 0.00 91 1001.5
20180921005401 44 275 6.0 14.0 0.00 0.69 0.00 91 1001.5
20180921005202 44 275 6.0 12.0 0.00 0.69 0.00 91 1001.5
20180921005001 44 275 6.0 12.0 0.00 0.69 0.00 91 1001.5
20180921004801 44 276 6.0 12.0 0.00 0.69 0.00 91 1001.5
20180921004601 44 277 6.0 12.0 0.00 0.69 0.00 91 1001.5
20180921004401 44 278 7.0 12.0 0.00 0.69 0.00 91 1001.5
20180921004201 44 278 7.0 14.0 0.00 0.69 0.00 92 1001.6
20180921004001 44 279 7.0 14.0 0.00 0.69 0.00 92 1001.5
20180921003801 44 279 7.0 14.0 0.00 0.69 0.00 92 1001.5
20180921003601 43 280 7.0 14.0 0.00 0.69 0.00 92 1001.5
20180921003401 43 281 7.0 14.0 0.00 0.69 0.00 92 1001.4
20180921003202 43 283 7.0 12.0 0.00 0.69 0.00 92 1001.4
20180921003002 43 285 7.0 12.0 0.00 0.69 0.00 92 1001.3
20180921002801 43 287 8.0 12.0 0.00 0.69 0.00 92 1001.3
20180921002601 43 288 8.0 13.0 0.00 0.69 0.00 92 1001.3
20180921002401 43 287 8.0 13.0 0.00 0.69 0.00 92 1001.2
20180921002201 43 285 8.0 13.0 0.00 0.69 0.00 92 1001.2
20180921002001 43 281 8.0 13.0 0.00 0.69 0.00 92 1001.1
20180921001801 43 280 8.0 13.0 0.00 0.69 0.00 92 1001.0
20180921001601 43 279 8.0 13.0 0.00 0.69 0.00 92 1001.0
20180921001401 43 280 8.0 13.0 0.00 0.69 0.00 92 1001.0
20180921001202 43 281 8.0 13.0 0.00 0.69 0.00 92 1001.0
20180921001002 44 282 8.0 16.0 0.00 0.69 0.00 92 1001.0
20180921000802 44 281 8.0 16.0 0.00 0.69 0.00 92 1000.9
20180921000602 44 278 8.0 16.0 0.00 0.69 0.00 92 1000.8
20180921000401 44 277 8.0 16.0 0.00 0.69 0.00 92 1000.8
20180921000201 44 276 8.0 16.0 0.00 0.69 0.00 92 1000.8
20180921000001 44 274 8.0 13.0 0.00 0.69 0.00 92 1000.7
20180920235801 44 273 8.0 18.0 0.00 0.69 0.00 92 1000.7
20180920235601 44 275 8.0 18.0 0.00 0.69 0.00 92 1000.7
20180920235402 44 275 8.0 18.0 0.00 0.69 0.00 92 1000.6
20180920235202 44 277 7.0 18.0 0.00 0.69 0.00 92 1000.6
20180920235002 44 278 7.0 18.0 0.00 0.69 0.00 92 1000.6
20180920234802 44 280 7.0 12.0 0.00 0.69 0.00 92 1000.5
20180920234602 44 279 7.0 12.0 0.00 0.69 0.00 92 1000.5
20180920234402 44 278 7.0 13.0 0.00 0.69 0.00 92 1000.5
20180920234202 44 277 7.0 13.0 0.00 0.69 0.00 92 1000.4
20180920234002 44 276 7.0 13.0 0.00 0.69 0.00 92 1000.4
20180920233801 44 274 7.0 13.0 0.00 0.69 0.00 92 1000.3
20180920233602 44 274 7.0 13.0 0.00 0.69 0.00 92 1000.3
20180920233402 44 273 7.0 11.0 0.00 0.69 0.00 92 1000.2
20180920233201 44 273 7.0 10.0 0.00 0.69 0.00 92 1000.1
20180920233002 44 273 8.0 10.0 0.00 0.69 0.00 92 1000.3
20180920232802 44 273 8.0 12.0 0.00 0.69 0.00 92 1000.2
20180920232602 44 275 8.0 13.0 0.00 0.69 0.00 92 1000.1
20180920232402 44 277 8.0 16.0 0.00 0.69 0.00 92 1000.0
20180920232202 44 278 8.0 16.0 0.00 0.69 0.00 92 1000.0
20180920232002 44 278 8.0 16.0 0.00 0.69 0.00 92 999.9
20180920231802 44 278 7.0 16.0 0.00 0.69 0.00 93 999.9
20180920231602 44 275 7.0 16.0 0.00 0.69 0.00 93 999.8
20180920231402 44 273 7.0 14.0 0.00 0.69 0.00 93 999.7
20180920231203 44 272 7.0 14.0 0.00 0.69 0.00 93 999.8
20180920231002 44 272 7.0 13.0 0.00 0.69 0.00 93 999.7
20180920230802 44 274 7.0 13.0 0.00 0.69 0.00 93 999.7
20180920230602 44 277 8.0 13.0 0.00 0.69 0.00 93 999.7
20180920230402 44 279 8.0 13.0 0.00 0.69 0.00 93 999.7
20180920230202 44 282 8.0 15.0 0.00 0.69 0.00 93 999.6
20180920230003 44 285 9.0 15.0 0.00 0.69 0.00 93 999.6
20180920225802 44 287 9.0 15.0 0.00 0.69 0.69 93 999.5
20180920225602 44 290 9.0 15.0 0.00 0.69 0.69 93 999.5
20180920225402 44 292 9.0 15.0 0.00 0.69 0.69 93 999.6
20180920225202 44 293 9.0 18.0 0.00 0.69 0.69 93 999.5
20180920225002 44 293 9.0 18.0 0.00 0.69 0.69 93 999.5
20180920224802 44 292 9.0 18.0 0.00 0.69 0.69 94 999.5
20180920224602 44 291 9.0 18.0 0.00 0.69 0.69 94 999.5
20180920224402 44 290 9.0 18.0 0.00 0.69 0.69 94 999.5
20180920224202 44 293 9.0 18.0 0.00 0.69 0.69 94 999.4
20180920224002 44 294 10.0 18.0 0.00 0.69 0.69 94 999.4
20180920223802 44 295 10.0 19.0 0.00 0.69 0.69 94 999.3
20180920223602 44 297 10.0 19.0 0.00 0.69 0.69 94 999.3
20180920223402 44 297 9.0 19.0 0.00 0.69 0.69 94 999.2
20180920223203 44 295 9.0 19.0 0.00 0.69 0.69 94 999.2
20180920223003 44 294 9.0 19.0 0.00 0.69 0.69 94 999.2
20180920222803 44 293 9.0 19.0 0.00 0.69 0.69 94 999.2
20180920222603 44 293 9.0 19.0 0.00 0.69 0.69 94 999.2
20180920222402 44 294 9.0 14.0 0.00 0.69 0.69 94 999.2
20180920222202 44 294 8.0 14.0 0.00 0.69 0.69 94 999.1
20180920222002 44 295 8.0 14.0 0.00 0.69 0.69 94 999.1
20180920221802 44 299 7.0 13.0 0.00 0.69 0.69 94 999.2
20180920221602 44 301 7.0 13.0 0.00 0.69 0.69 94 999.0
20180920221402 44 304 6.0 12.0 0.00 0.69 0.69 94 998.9
20180920221202 44 308 6.0 12.0 0.00 0.69 0.69 93 998.9
20180920221004 44 311 6.0 12.0 0.00 0.69 0.69 93 998.8
20180920220803 44 314 6.0 10.0 0.00 0.69 0.69 93 998.8
20180920220603 44 315 6.0 9.0 0.00 0.69 0.69 93 998.8
20180920220403 44 315 6.0 10.0 0.00 0.69 0.69 93 998.8
20180920220202 44 315 6.0 10.0 0.00 0.69 0.69 93 998.8
20180920220002 44 315 6.0 10.0 0.00 0.69 0.69 93 998.8
20180920215802 44 316 5.0 10.0 0.00 0.69 0.69 93 998.7
20180920215603 44 316 5.0 10.0 0.00 0.69 0.69 93 998.7
20180920215403 44 317 5.0 10.0 0.00 0.69 0.69 93 998.5
20180920215203 44 317 5.0 10.0 0.00 0.69 0.69 93 998.3
20180920215003 44 317 5.0 12.0 0.00 0.69 0.69 93 998.4
20180920214803 44 317 5.0 12.0 0.00 0.69 0.69 93 998.3
20180920214602 44 317 6.0 12.0 0.00 0.69 0.69 93 998.3
20180920214402 44 317 7.0 12.0 0.00 0.69 0.69 93 998.3
20180920214202 44 317 8.0 13.0 0.00 0.69 0.69 93 998.4
20180920214002 44 315 8.0 14.0 0.00 0.69 0.69 93 998.3
20180920213803 44 313 9.0 14.0 0.00 0.69 0.69 93 998.3
20180920213603 44 311 9.0 14.0 0.00 0.69 0.69 93 998.2
20180920213403 44 310 9.0 14.0 0.00 0.69 0.69 93 998.3
20180920213203 44 308 9.0 14.0 0.00 0.69 0.69 93 998.3
20180920213003 44 307 9.0 14.0 0.00 0.69 0.69 93 998.3
20180920212803 44 307 9.0 14.0 0.00 0.69 0.69 93 998.3
20180920212615 44 308 9.0 14.0 0.00 0.69 0.69 93 998.2
20180920212403 44 310 8.0 14.0 0.01 0.69 0.69 93 998.2
20180920212203 44 311 8.0 14.0 0.01 0.69 0.69 93 998.0
20180920212003 44 315 8.0 14.0 0.01 0.69 0.69 93 998.0
20180920211803 44 316 8.0 14.0 0.01 0.69 0.69 93 997.9
20180920211603 44 317 8.0 14.0 0.01 0.69 0.69 93 997.8
20180920211403 44 317 7.0 14.0 0.01 0.69 0.69 93 997.8
20180920211203 44 317 7.0 13.0 0.01 0.69 0.69 93 997.7
20180920211003 44 317 7.0 13.0 0.01 0.69 0.69 94 997.7
20180920210803 44 317 7.0 13.0 0.01 0.69 0.69 94 997.7
20180920210603 44 317 7.0 13.0 0.01 0.69 0.69 94 997.6
20180920210403 44 316 7.0 11.0 0.02 0.69 0.69 94 997.7
20180920210203 44 315 6.0 13.0 0.02 0.69 0.69 94 997.6
20180920210003 44 316 6.0 13.0 0.02 0.69 0.69 94 997.5
20180920205803 44 317 6.0 13.0 0.03 0.69 0.69 94 997.5
20180920205603 44 319 6.0 13.0 0.03 0.69 0.69 94 997.5
20180920205403 44 321 6.0 13.0 0.03 0.69 0.69 94 997.5
20180920205203 44 323 7.0 11.0 0.04 0.69 0.69 94 997.4
20180920205003 44 322 7.0 10.0 0.04 0.69 0.69 94 997.4
20180920204803 44 321 7.0 12.0 0.05 0.69 0.69 94 997.3
20180920204603 44 319 7.0 12.0 0.05 0.69 0.69 94 997.4
20180920204404 44 319 7.0 12.0 0.05 0.69 0.69 94 997.4
20180920204203 44 319 7.0 12.0 0.05 0.69 0.69 94 997.5
20180920204003 44 319 7.0 12.0 0.05 0.69 0.69 95 997.5
20180920203803 44 320 7.0 11.0 0.05 0.69 0.69 95 997.4
20180920203604 44 320 7.0 11.0 0.06 0.69 0.69 95 997.4
20180920203406 44 320 7.0 12.0 0.06 0.69 0.69 95 997.4
20180920203204 44 321 6.0 12.0 0.06 0.69 0.69 94 997.5
20180920203004 44 323 6.0 12.0 0.06 0.69 0.69 94 997.3
20180920202803 44 324 5.0 12.0 0.07 0.69 0.69 94 997.3
20180920202603 44 326 4.0 12.0 0.07 0.69 0.69 94 997.3
20180920202403 44 329 3.0 11.0 0.06 0.68 0.68 94 997.3
20180920202203 44 329 3.0 11.0 0.06 0.68 0.68 94 997.2
20180920202003 44 333 3.0 11.0 0.07 0.68 0.68 94 997.3
20180920201803 44 336 3.0 11.0 0.07 0.68 0.68 94 997.3
20180920201603 44 343 4.0 11.0 0.08 0.68 0.68 94 997.2
20180920201403 44 355 4.0 11.0 0.08 0.68 0.68 94 997.1
20180920201204 44 354 4.0 11.0 0.08 0.68 0.68 94 997.1
20180920201011 44 354 4.0 11.0 0.08 0.68 0.68 94 997.0
20180920200804 44 354 4.0 13.0 0.09 0.68 0.68 94 996.9
20180920200604 44 355 4.0 13.0 0.10 0.68 0.68 94 997.0
20180920200404 44 356 4.0 13.0 0.09 0.67 0.67 94 997.0
20180920200204 44 357 5.0 13.0 0.09 0.67 0.67 94 997.0
20180920200005 44 355 6.0 13.0 0.10 0.67 0.67 94 997.0
20180920195804 44 355 6.0 12.0 0.09 0.66 0.66 94 997.0
20180920195603 44 354 7.0 15.0 0.10 0.66 0.66 94 997.0
20180920195404 44 353 8.0 15.0 0.10 0.66 0.66 94 997.1
20180920195204 44 353 8.0 18.0 0.11 0.65 0.65 94 997.1
20180920195004 44 356 9.0 18.0 0.11 0.65 0.65 94 997.1
20180920194804 44 5 9.0 18.0 0.11 0.64 0.64 94 997.0
20180920194604 44 10 9.0 18.0 0.12 0.64 0.64 94 996.9
20180920194404 44 14 9.0 18.0 0.12 0.64 0.64 94 997.0
20180920194204 44 17 8.0 16.0 0.13 0.64 0.64 94 996.9
20180920194004 44 16 8.0 16.0 0.13 0.64 0.64 94 996.9
20180920193804 44 10 7.0 16.0 0.13 0.64 0.64 94 997.0
20180920193604 44 4 7.0 16.0 0.12 0.63 0.63 94 996.9
20180920193404 44 358 6.0 16.0 0.12 0.63 0.63 94 997.0
20180920193204 44 351 6.0 13.0 0.12 0.63 0.63 94 997.1
20180920193004 44 347 5.0 13.0 0.12 0.63 0.63 94 997.2
20180920192804 44 345 5.0 13.0 0.11 0.62 0.62 94 997.3
20180920192604 44 345 6.0 13.0 0.11 0.62 0.62 94 997.3
20180920192404 44 346 6.0 13.0 0.11 0.62 0.62 94 997.3
20180920192204 44 347 7.0 21.0 0.12 0.62 0.62 94 997.4
20180920192005 44 358 7.0 21.0 0.11 0.61 0.61 94 997.4
20180920191805 44 358 7.0 21.0 0.11 0.61 0.61 94 997.3
20180920191605 44 357 7.0 21.0 0.10 0.60 0.60 94 997.2
20180920191404 44 353 6.0 21.0 0.10 0.60 0.60 94 996.9
20180920191204 44 352 6.0 21.0 0.10 0.60 0.60 94 996.9
20180920191005 44 346 7.0 16.0 0.09 0.59 0.59 94 997.1
20180920190804 44 343 8.0 14.0 0.09 0.59 0.59 94 997.0
20180920190605 44 343 8.0 15.0 0.08 0.58 0.58 94 997.1
20180920190406 44 347 9.0 18.0 0.08 0.58 0.58 94 997.1
20180920190204 44 352 9.0 18.0 0.08 0.58 0.58 94 996.8
20180920190005 44 352 9.0 18.0 0.07 0.57 0.57 94 996.8
20180920185804 44 352 9.0 18.0 0.06 0.56 0.56 94 996.6
20180920185604 44 354 9.0 19.0 0.07 0.56 0.56 94 996.4
20180920185405 44 353 8.0 19.0 0.06 0.55 0.55 94 996.2
20180920185204 45 349 8.0 19.0 0.05 0.54 0.54 94 996.3
20180920185005 45 351 8.0 19.0 0.06 0.54 0.54 94 996.5
20180920184804 45 350 8.0 19.0 0.05 0.53 0.53 94 996.4
20180920184605 45 351 9.0 18.0 0.04 0.52 0.52 94 996.3
20180920184405 45 351 9.0 18.0 0.04 0.52 0.52 94 996.3
20180920184204 45 355 9.0 18.0 0.05 0.51 0.51 94 996.3
20180920184004 45 356 10.0 15.0 0.05 0.51 0.51 94 996.3
20180920183805 45 3 10.0 19.0 0.05 0.51 0.51 94 996.3
20180920183605 45 5 11.0 19.0 0.06 0.51 0.51 94 996.2
20180920183405 45 6 11.0 19.0 0.06 0.51 0.51 94 996.1
20180920183204 45 10 12.0 19.0 0.07 0.51 0.51 94 996.0
20180920183005 45 15 12.0 25.0 0.07 0.51 0.51 94 996.0
20180920182805 45 18 12.0 25.0 0.07 0.51 0.51 94 996.0
20180920182604 45 21 12.0 25.0 0.07 0.51 0.51 94 995.9
20180920182405 45 21 11.0 25.0 0.07 0.51 0.51 94 995.8
20180920182205 45 21 11.0 25.0 0.07 0.50 0.50 94 995.8
20180920182004 45 19 11.0 23.0 0.08 0.50 0.50 94 995.6
20180920181805 45 15 11.0 20.0 0.08 0.50 0.50 94 995.7
20180920181605 45 12 11.0 20.0 0.08 0.50 0.50 94 995.9
20180920181405 45 14 11.0 20.0 0.08 0.50 0.50 94 996.0
20180920181204 45 12 12.0 18.0 0.09 0.50 0.50 94 996.0
20180920181004 45 11 12.0 19.0 0.09 0.50 0.50 94 996.1
20180920180804 45 9 12.0 21.0 0.10 0.50 0.50 94 996.1
20180920180605 45 10 12.0 21.0 0.10 0.50 0.50 94 996.3
20180920180405 45 9 12.0 21.0 0.10 0.50 0.50 94 996.5
20180920180205 45 7 11.0 21.0 0.11 0.50 0.50 94 996.6
20180920180005 45 6 11.0 21.0 0.11 0.50 0.50 94 996.7
20180920175804 45 6 10.0 20.0 0.12 0.50 0.50 94 996.6
20180920175604 45 5 10.0 19.0 0.11 0.49 0.49 94 996.7
20180920175405 46 4 10.0 19.0 0.11 0.49 0.49 94 996.7
20180920175205 46 3 10.0 19.0 0.11 0.49 0.49 94 996.7
20180920175005 46 3 10.0 18.0 0.10 0.48 0.48 94 996.6
20180920174805 46 7 11.0 18.0 0.10 0.48 0.48 94 996.7
20180920174605 46 8 11.0 18.0 0.10 0.48 0.48 94 996.7
20180920174415 46 7 12.0 25.0 0.10 0.47 0.47 94 996.8
20180920174205 46 6 12.0 25.0 0.09 0.46 0.46 94 996.8
20180920174005 46 7 12.0 25.0 0.09 0.46 0.46 94 997.1
20180920173805 46 4 12.0 25.0 0.09 0.46 0.46 94 996.9
20180920173605 46 5 12.0 25.0 0.08 0.45 0.45 95 996.9
20180920173405 46 9 12.0 21.0 0.09 0.45 0.45 94 996.8
20180920173205 46 12 12.0 21.0 0.08 0.44 0.44 94 996.8
20180920173005 46 16 11.0 21.0 0.08 0.44 0.44 94 996.6
20180920172805 46 17 11.0 21.0 0.08 0.44 0.44 94 996.2
20180920172605 46 17 11.0 21.0 0.08 0.44 0.44 94 996.1
20180920172405 46 18 11.0 19.0 0.07 0.43 0.43 94 996.1
20180920172205 46 19 11.0 19.0 0.07 0.43 0.43 94 996.1
20180920172006 46 21 11.0 19.0 0.06 0.42 0.42 94 996.4
20180920171805 46 25 11.0 19.0 0.06 0.42 0.42 94 996.5
20180920171605 46 28 11.0 19.0 0.06 0.42 0.42 94 996.4
20180920171405 46 27 11.0 19.0 0.06 0.42 0.42 94 996.4
20180920171205 46 28 11.0 19.0 0.06 0.41 0.41 94 996.6
20180920171005 47 26 11.0 19.0 0.06 0.41 0.41 94 996.6
20180920170805 47 23 11.0 19.0 0.05 0.40 0.40 94 996.7
20180920170605 47 21 11.0 19.0 0.06 0.40 0.40 94 996.7
20180920170406 47 21 11.0 19.0 0.06 0.40 0.40 94 996.7
20180920170205 47 23 11.0 19.0 0.05 0.39 0.39 94 996.8
20180920170005 47 25 11.0 19.0 0.04 0.38 0.38 94 996.8
20180920165805 47 30 11.0 19.0 0.04 0.38 0.38 94 996.9
20180920165606 47 30 11.0 16.0 0.04 0.38 0.38 94 997.0
20180920165405 47 32 11.0 19.0 0.04 0.38 0.38 94 996.9
20180920165205 47 31 10.0 19.0 0.05 0.38 0.38 94 997.0
20180920165005 47 30 10.0 19.0 0.05 0.38 0.38 94 996.9
20180920164806 47 27 9.0 19.0 0.05 0.38 0.38 94 997.0
20180920164605 47 29 9.0 19.0 0.05 0.37 0.37 94 996.9
20180920164406 47 30 8.0 16.0 0.05 0.37 0.37 94 996.9
20180920164206 47 34 8.0 18.0 0.05 0.37 0.37 94 997.0
20180920164005 47 35 7.0 18.0 0.05 0.37 0.37 94 996.9
20180920163805 47 38 7.0 18.0 0.06 0.37 0.37 94 996.9
20180920163605 47 38 7.0 18.0 0.07 0.37 0.37 94 997.0
20180920163406 47 37 7.0 18.0 0.06 0.36 0.36 94 997.1
20180920163207 47 34 7.0 13.0 0.06 0.36 0.36 94 997.1
20180920163007 47 34 7.0 13.0 0.07 0.36 0.36 94 997.2
20180920162805 47 34 7.0 13.0 0.07 0.36 0.36 94 997.3
20180920162605 47 34 7.0 13.0 0.07 0.36 0.36 94 997.3
20180920162405 47 35 7.0 15.0 0.07 0.36 0.36 94 997.4
20180920162205 47 35 7.0 15.0 0.07 0.36 0.36 94 997.4
20180920162006 47 34 7.0 15.0 0.07 0.36 0.36 94 997.5
20180920161806 47 34 7.0 15.0 0.07 0.36 0.36 94 997.5
20180920161605 47 32 7.0 15.0 0.07 0.36 0.36 94 997.6
20180920161406 47 31 7.0 12.0 0.07 0.36 0.36 94 997.6
20180920161206 47 29 7.0 12.0 0.06 0.35 0.35 94 997.6
20180920161006 47 28 8.0 11.0 0.06 0.35 0.35 94 997.7
20180920160805 47 27 8.0 11.0 0.06 0.35 0.35 94 997.7
20180920160606 47 26 8.0 11.0 0.05 0.34 0.34 94 997.8
20180920160406 47 26 8.0 14.0 0.05 0.34 0.34 94 997.8
20180920160206 47 26 8.0 14.0 0.05 0.34 0.34 94 998.0
20180920160006 47 26 7.0 14.0 0.05 0.34 0.34 93 998.2
20180920155805 47 26 7.0 14.0 0.05 0.34 0.34 93 998.3
20180920155605 47 27 7.0 14.0 0.05 0.34 0.34 93 998.3
20180920155406 47 29 7.0 13.0 0.05 0.34 0.34 93 998.4
20180920155206 47 31 7.0 13.0 0.04 0.33 0.33 93 998.4
20180920155006 47 33 7.0 11.0 0.04 0.33 0.33 93 998.5
20180920154806 47 34 7.0 11.0 0.04 0.33 0.33 92 998.5
20180920154606 47 34 7.0 11.0 0.03 0.32 0.33 97 998.4
20180920154406 48 35 7.0 11.0 0.03 0.32 0.32 92 998.4
20180920154206 48 35 7.0 11.0 0.03 0.32 0.32 92 998.4
20180920154006 48 35 7.0 11.0 0.03 0.32 0.32 92 998.3
20180920153805 48 35 7.0 11.0 0.02 0.31 0.31 91 998.4
20180920153607 48 35 7.0 12.0 0.01 0.30 0.30 91 998.4
20180920153406 48 35 7.0 12.0 0.02 0.30 0.30 91 998.5
20180920153206 48 35 7.0 12.0 0.02 0.30 0.30 91 998.6
20180920153006 48 35 7.0 12.0 0.01 0.29 0.29 90 998.5
20180920152806 48 35 7.0 12.0 0.01 0.29 0.29 90 998.5
20180920152606 48 35 7.0 12.0 0.01 0.29 0.29 90 998.5
20180920152406 48 37 7.0 14.0 0.01 0.29 0.29 90 998.5
20180920152206 48 39 6.0 14.0 0.01 0.29 0.29 89 998.5
20180920152006 48 40 6.0 14.0 0.01 0.29 0.29 89 998.5
20180920151806 48 43 6.0 14.0 0.01 0.29 0.29 89 998.5
20180920151605 48 46 6.0 14.0 0.01 0.29 0.29 89 998.5
20180920151406 48 46 7.0 12.0 0.01 0.29 0.29 89 998.6
20180920151206 48 46 6.0 12.0 0.01 0.29 0.29 90 998.6
20180920151006 48 46 6.0 12.0 0.01 0.29 0.29 89 998.5
20180920150606 48 46 6.0 12.0 0.01 0.29 0.29 89 998.5
20180920150406 49 46 6.0 12.0 0.01 0.29 0.29 90 998.4
20180920150206 49 47 6.0 10.0 0.01 0.29 0.29 90 998.4
20180920150006 49 47 7.0 12.0 0.01 0.29 0.29 90 998.4
20180920145806 49 46 7.0 12.0 0.01 0.29 0.29 91 998.5
20180920145607 49 46 7.0 13.0 0.01 0.29 0.29 91 998.5
20180920145407 49 47 7.0 13.0 0.01 0.29 0.29 91 998.6
20180920145206 49 47 7.0 13.0 0.01 0.29 0.29 91 998.5
20180920145006 49 48 7.0 13.0 0.01 0.29 0.29 91 998.6
20180920144806 49 49 7.0 13.0 0.01 0.29 0.29 91 998.8
20180920144606 49 50 7.0 12.0 0.01 0.29 0.29 91 998.9
20180920144406 49 50 7.0 12.0 0.01 0.29 0.29 92 998.9
20180920144206 49 50 8.0 13.0 0.01 0.29 0.29 91 998.9
20180920144006 49 50 8.0 13.0 0.01 0.29 0.29 92 999.0
20180920143807 49 50 8.0 13.0 0.01 0.29 0.29 92 999.0
20180920143606 49 50 8.0 13.0 0.00 0.28 0.28 91 999.0
20180920143407 49 52 8.0 13.0 0.00 0.28 0.28 91 999.0
20180920143207 49 53 8.0 13.0 0.00 0.28 0.28 91 999.1
20180920143006 49 54 7.0 13.0 0.00 0.28 0.28 91 999.2
20180920142806 49 55 7.0 13.0 0.00 0.28 0.28 91 999.4
20180920142607 49 52 7.0 13.0 0.00 0.28 0.28 91 999.4
20180920142406 49 47 6.0 13.0 0.00 0.28 0.28 91 999.4
20180920142206 49 44 5.0 13.0 0.00 0.28 0.28 91 999.6
20180920142006 49 40 5.0 13.0 0.00 0.28 0.28 91 999.7
20180920141807 49 36 5.0 13.0 0.00 0.28 0.28 91 999.8
20180920141607 49 34 5.0 13.0 0.00 0.28 0.28 92 999.8
20180920141407 49 33 5.0 10.0 0.01 0.28 0.28 92 999.8
20180920141207 49 32 5.0 10.0 0.01 0.28 0.28 92 999.8
20180920141007 49 32 5.0 9.0 0.01 0.28 0.28 92 999.9
20180920140807 49 31 5.0 10.0 0.01 0.28 0.28 92 1000.0
20180920140607 49 28 5.0 10.0 0.02 0.28 0.28 93 1000.1
20180920140407 49 24 5.0 10.0 0.02 0.28 0.28 93 1000.1
20180920140207 49 14 5.0 11.0 0.02 0.28 0.28 93 1000.0
20180920140006 49 359 4.0 11.0 0.02 0.28 0.28 93 1000.2
20180920135806 49 334 4.0 11.0 0.03 0.28 0.28 94 1000.2
20180920135606 49 315 4.0 11.0 0.04 0.28 0.28 94 1000.4
20180920135406 49 290 4.0 11.0 0.04 0.28 0.28 94 1000.4
20180920135207 49 272 4.0 8.0 0.04 0.28 0.28 94 1000.4
20180920135007 49 262 4.0 9.0 0.04 0.28 0.28 94 1000.5
20180920134807 49 258 3.0 9.0 0.05 0.28 0.28 94 1000.7
20180920134607 49 256 3.0 9.0 0.06 0.28 0.28 94 1000.7
20180920134407 49 254 2.0 9.0 0.06 0.28 0.28 94 1000.9
20180920134207 49 252 2.0 9.0 0.06 0.28 0.28 94 1000.9
20180920134006 49 250 2.0 6.0 0.07 0.28 0.28 94 1001.0
20180920133807 49 250 1.0 6.0 0.07 0.28 0.28 94 1001.0
20180920133606 49 250 1.0 5.0 0.08 0.28 0.28 94 1001.2
20180920133407 49 250 1.0 5.0 0.08 0.28 0.28 94 1001.3
20180920133206 48 250 1.0 5.0 0.08 0.28 0.28 94 1001.3
20180920133007 48 250 1.0 5.0 0.09 0.28 0.28 94 1001.4
20180920132807 48 250 1.0 5.0 0.09 0.28 0.28 94 1001.3
20180920132607 48 250 2.0 5.0 0.10 0.28 0.28 94 1001.4
20180920132407 48 273 2.0 6.0 0.10 0.28 0.28 94 1001.4
20180920132207 48 11 2.0 7.0 0.10 0.28 0.28 94 1001.5
20180920132007 48 54 1.0 7.0 0.11 0.28 0.28 94 1001.5
20180920131807 48 58 1.0 7.0 0.11 0.28 0.28 94 1001.5
20180920131607 48 62 1.0 7.0 0.12 0.28 0.28 94 1001.5
20180920131407 48 76 1.0 7.0 0.11 0.27 0.27 94 1001.5
20180920131207 48 75 2.0 5.0 0.11 0.27 0.27 94 1001.5
20180920131007 48 76 2.0 5.0 0.11 0.27 0.27 94 1001.7
20180920130807 48 75 2.0 5.0 0.10 0.26 0.26 94 1001.7
20180920130607 48 58 2.0 6.0 0.10 0.26 0.26 94 1001.7
20180920130408 48 37 2.0 6.0 0.10 0.26 0.26 93 1001.7
20180920130207 48 26 2.0 6.0 0.10 0.26 0.26 93 1001.8
20180920130008 48 344 3.0 6.0 0.11 0.26 0.26 93 1001.8
20180920125808 48 319 3.0 6.0 0.10 0.25 0.25 93 1001.8
20180920125607 48 318 3.0 6.0 0.10 0.24 0.24 93 1001.9
20180920125408 48 318 3.0 6.0 0.10 0.24 0.24 93 1001.9
20180920125207 48 319 2.0 6.0 0.10 0.24 0.24 93 1001.9
20180920125008 48 318 2.0 6.0 0.09 0.23 0.23 93 1002.0
20180920124807 48 319 1.0 6.0 0.08 0.22 0.22 93 1002.0
20180920124608 48 319 1.0 6.0 0.09 0.22 0.22 93 1002.2
20180920124407 49 318 0.0 6.0 0.09 0.22 0.22 93 1002.2
20180920124208 49 318 0.0 5.0 0.10 0.22 0.22 93 1002.2
20180920124007 49 318 0.0 4.0 0.09 0.21 0.21 93 1002.3
20180920123808 49 0 0.0 0.0 0.09 0.21 0.21 93 1002.2
20180920123607 49 0 0.0 0.0 0.08 0.20 0.20 93 1002.3
20180920123408 49 0 0.0 0.0 0.08 0.20 0.20 93 1002.4
20180920123208 49 0 0.0 0.0 0.09 0.20 0.20 93 1002.4
20180920123008 49 0 0.0 0.0 0.08 0.19 0.19 93 1002.5
20180920122808 49 0 0.0 0.0 0.08 0.18 0.18 93 1002.5
20180920122607 49 0 0.0 0.0 0.08 0.18 0.18 93 1002.6
20180920122408 49 0 0.0 0.0 0.08 0.18 0.18 93 1002.6
20180920122207 49 0 0.0 0.0 0.08 0.18 0.18 93 1002.7
20180920122008 49 0 0.0 0.0 0.07 0.17 0.17 93 1002.7
20180920121808 49 0 0.0 0.0 0.08 0.17 0.17 93 1002.7
20180920121608 49 0 0.0 0.0 0.07 0.16 0.16 93 1002.8
20180920121407 49 0 0.0 0.0 0.08 0.16 0.16 93 1002.9
20180920121207 49 0 0.0 0.0 0.08 0.16 0.16 93 1003.0
20180920121008 49 318 0.0 2.0 0.08 0.16 0.16 93 1003.0
20180920120807 49 318 0.0 6.0 0.08 0.16 0.16 93 1003.0
20180920120608 49 318 0.0 6.0 0.09 0.16 0.16 93 1003.0
20180920120407 49 318 0.0 6.0 0.10 0.16 0.16 93 1002.9
20180920120207 49 318 0.0 6.0 0.09 0.15 0.15 93 1003.0
20180920120008 49 318 0.0 6.0 0.09 0.15 0.15 93 1002.9
20180920115807 49 0 0.0 0.0 0.09 0.15 0.15 93 1002.9
20180920115607 49 0 0.0 0.0 0.08 0.14 0.14 93 1002.9
20180920115408 49 0 0.0 0.0 0.09 0.14 0.14 93 1003.0
20180920115207 49 0 0.0 0.0 0.09 0.14 0.14 93 1003.1
20180920115116 49 0 0.0 0.0 0.09 0.14 0.14 93 1003.1
20180920114952 49 0 0.0 0.0 0.09 0.14 0.14 93 1003.1
20180920114743 49 0 0.0 0.0 0.09 0.13 0.13 93 1003.2
20180920114407 49 0 0.0 0.0 0.09 0.13 0.13 93 1003.2
20180920114207 49 0 0.0 0.0 0.08 0.12 0.12 93 1003.3
20180920114008 49 0 0.0 0.0 0.08 0.12 0.12 93 1003.4
20180920113807 49 0 0.0 0.0 0.08 0.12 0.12 93 1003.4
20180920113608 49 0 0.0 0.0 0.08 0.12 0.12 93 1003.6
20180920113407 49 0 0.0 0.0 0.09 0.12 0.12 93 1003.6
20180920113208 49 0 0.0 0.0 0.08 0.11 0.11 93 1003.6
20180920113009 49 0 0.0 0.0 0.08 0.11 0.11 94 1003.6
20180920112808 49 0 0.0 0.0 0.07 0.10 0.10 93 1003.5
20180920112609 49 0 0.0 0.0 0.08 0.10 0.10 93 1003.7
20180920112408 49 0 0.0 0.0 0.08 0.10 0.10 93 1003.9
20180920112207 49 0 0.0 0.0 0.08 0.10 0.10 93 1003.9
20180920112007 49 0 0.0 0.0 0.07 0.09 0.09 93 1004.0
20180920111808 49 0 0.0 0.0 0.07 0.09 0.09 93 1004.0
20180920111608 49 0 0.0 0.0 0.07 0.09 0.09 93 1004.1
20180920111407 49 0 0.0 0.0 0.06 0.08 0.08 93 1004.1
20180920111207 49 0 0.0 0.0 0.06 0.08 0.08 93 1004.3
20180920111008 49 0 0.0 0.0 0.06 0.08 0.08 93 1004.3
20180920110807 49 0 0.0 0.0 0.05 0.07 0.07 93 1004.3
20180920110608 49 0 0.0 0.0 0.05 0.07 0.07 93 1004.4
20180920110409 49 0 0.0 0.0 0.04 0.06 0.06 93 1004.5
20180920110208 49 0 0.0 0.0 0.04 0.06 0.06 93 1004.5
20180920110009 49 0 0.0 0.0 0.04 0.06 0.06 93 1004.5
20180920105808 49 0 0.0 0.0 0.04 0.06 0.06 93 1004.6
20180920105608 49 0 0.0 0.0 0.04 0.06 0.06 93 1004.6
20180920105408 49 0 0.0 0.0 0.03 0.05 0.05 93 1004.6
20180920105208 49 0 0.0 0.0 0.03 0.05 0.05 93 1004.6
20180920105008 49 0 1.0 0.0 0.03 0.05 0.05 93 1004.6
20180920104808 49 0 1.0 0.0 0.03 0.05 0.05 93 1004.7
20180920104608 49 164 1.0 7.0 0.03 0.04 0.04 93 1004.7
20180920104407 49 164 2.0 7.0 0.03 0.04 0.04 93 1004.7
20180920104208 49 164 2.0 7.0 0.03 0.04 0.04 93 1004.8
20180920104008 49 164 2.0 7.0 0.03 0.04 0.04 93 1004.7
20180920103807 49 164 2.0 7.0 0.03 0.04 0.04 93 1004.8
20180920103608 49 164 2.0 7.0 0.03 0.04 0.04 93 1004.8
20180920103407 49 164 2.0 7.0 0.02 0.03 0.03 93 1004.8
20180920103208 49 164 3.0 7.0 0.02 0.03 0.03 93 1004.8
20180920103008 49 164 3.0 7.0 0.02 0.03 0.03 93 1004.8
20180920102808 49 164 4.0 7.0 0.02 0.03 0.03 93 1004.9
20180920102608 49 164 4.0 7.0 0.02 0.02 0.02 92 1004.9
20180920102408 49 164 5.0 8.0 0.02 0.02 0.02 92 1004.9
20180920102207 49 164 5.0 8.0 0.02 0.02 0.02 92 1005.0
20180920102007 49 164 6.0 9.0 0.02 0.02 0.02 92 1005.0
20180920101807 49 164 6.0 10.0 0.02 0.02 0.02 92 1005.0
20180920101607 49 164 6.0 10.0 0.02 0.02 0.02 92 1005.1
20180920101408 49 164 6.0 10.0 0.02 0.02 0.02 92 1005.0
20180920101208 49 164 7.0 10.0 0.02 0.02 0.02 92 1005.1
20180920101008 49 164 7.0 10.0 0.02 0.02 0.02 91 1005.2
20180920100807 49 164 7.0 10.0 0.02 0.02 0.02 92 1005.3
20180920100607 49 164 7.0 10.0 0.02 0.02 0.02 91 1005.3
20180920100407 49 164 6.0 10.0 0.02 0.02 0.02 91 1005.7
20180920100208 49 164 6.0 10.0 0.02 0.02 0.02 91 1005.7
20180920100008 49 164 6.0 10.0 0.02 0.02 0.02 91 1005.7
20180920095808 49 164 6.0 10.0 0.02 0.02 0.02 91 1005.7
20180920095608 49 164 5.0 11.0 0.02 0.02 0.02 92 1005.7
20180920095407 49 164 5.0 11.0 0.02 0.02 0.02 92 1005.7
20180920095207 49 164 5.0 11.0 0.02 0.02 0.02 92 1005.7
20180920095007 49 164 4.0 11.0 0.02 0.02 0.02 91 1005.8
20180920094808 49 164 4.0 11.0 0.01 0.01 0.01 91 1005.8
20180920094609 49 164 4.0 9.0 0.01 0.01 0.01 92 1005.8
20180920094409 49 164 4.0 9.0 0.01 0.01 0.01 91 1005.8
20180920094208 49 164 4.0 9.0 0.01 0.01 0.01 91 1005.9
20180920094008 49 164 4.0 9.0 0.01 0.01 0.01 91 1005.8
20180920093808 49 164 4.0 9.0 0.01 0.01 0.01 91 1005.8
20180920093608 49 163 5.0 9.0 0.01 0.01 0.01 91 1005.8
20180920093408 49 163 5.0 9.0 0.01 0.01 0.01 91 1006.0
20180920093208 49 163 6.0 9.0 0.01 0.01 0.01 91 1006.0
20180920093010 49 164 6.0 11.0 0.01 0.01 0.01 90 1006.0
20180920092808 49 163 7.0 11.0 0.01 0.01 0.01 90 1006.0
20180920092609 49 163 7.0 11.0 0.00 0.00 0.00 90 1006.1
20180920092408 49 163 7.0 11.0 0.00 0.00 0.00 90 1006.0
20180920092209 49 163 7.0 11.0 0.00 0.00 0.00 90 1006.0
20180920092012 49 163 7.0 10.0 0.00 0.00 0.00 90 1006.1
20180920091812 49 163 7.0 10.0 0.00 0.00 0.00 90 1006.1
20180920091608 49 162 6.0 10.0 0.00 0.00 0.00 90 1006.0
20180920091410 49 162 6.0 10.0 0.00 0.00 0.00 90 1006.0
20180920091209 49 162 6.0 10.0 0.00 0.00 0.00 90 1006.0
20180920091008 49 161 6.0 10.0 0.00 0.00 0.00 90 1005.9
20180920090808 49 161 6.0 10.0 0.00 0.00 0.00 90 1005.9
20180920090608 49 161 6.0 10.0 0.00 0.00 0.00 90 1005.9
20180920090408 49 161 6.0 8.0 0.00 0.00 0.00 90 1005.9
20180920090209 49 161 6.0 8.0 0.00 0.00 0.00 90 1005.9
20180920090017 49 161 6.0 11.0 0.00 0.00 0.00 90 1006.0
20180920085808 49 161 6.0 11.0 0.00 0.00 0.00 90 1006.0
20180920085610 49 161 7.0 11.0 0.00 0.00 0.00 90 1006.0
20180920085408 49 160 7.0 11.0 0.00 0.00 0.00 90 1006.0
20180920085208 49 160 8.0 11.0 0.00 0.00 0.00 90 1006.0
20180920085008 49 160 8.0 11.0 0.00 0.00 0.00 90 1006.0
20180920084808 49 160 8.0 11.0 0.00 0.00 0.00 90 1006.1
20180920084608 49 160 8.0 11.0 0.00 0.00 0.00 89 1006.1
20180920084408 49 160 8.0 11.0 0.00 0.00 0.00 90 1006.2
20180920084208 49 160 7.0 11.0 0.00 0.00 0.00 90 1006.1
20180920084009 49 160 7.0 11.0 0.00 0.00 0.00 90 1006.1
20180920083809 49 160 7.0 11.0 0.00 0.00 0.00 90 1006.2
20180920083608 49 161 7.0 11.0 0.00 0.00 0.00 90 1006.4
20180920083414 49 160 6.0 12.0 0.00 0.00 0.00 90 1006.3
20180920083208 49 160 6.0 12.0 0.00 0.00 0.00 90 1006.4
20180920083009 49 160 6.0 12.0 0.00 0.00 0.00 90 1006.4
20180920082809 49 161 6.0 12.0 0.00 0.00 0.00 90 1006.4
20180920082609 49 161 6.0 12.0 0.00 0.00 0.00 90 1006.6
20180920082409 49 161 6.0 10.0 0.00 0.00 0.00 90 1006.7
20180920082208 49 161 6.0 9.0 0.00 0.00 0.00 90 1006.7
20180920082009 49 161 5.0 9.0 0.00 0.00 0.00 90 1006.9
20180920081809 49 161 5.0 9.0 0.00 0.00 0.00 90 1007.0
20180920081609 49 161 5.0 9.0 0.00 0.00 0.00 91 1007.0
20180920081409 48 161 5.0 9.0 0.00 0.00 0.00 91 1006.8
20180920081209 48 161 5.0 9.0 0.00 0.00 0.00 91 1006.9
20180920081008 48 161 5.0 10.0 0.00 0.00 0.00 91 1006.9
20180920080809 48 161 5.0 10.0 0.00 0.00 0.00 91 1006.6
20180920080609 48 161 4.0 10.0 0.00 0.00 0.00 91 1006.6
20180920080409 48 161 4.0 10.0 0.00 0.00 0.00 91 1006.7
20180920080209 48 161 3.0 10.0 0.00 0.00 0.00 91 1006.9
20180920080009 47 161 3.0 9.0 0.00 0.00 0.00 91 1007.0
20180920075809 47 161 3.0 9.0 0.00 0.00 0.00 91 1007.0
20180920075609 47 161 3.0 7.0 0.00 0.00 0.00 91 1007.1
20180920075409 47 161 3.0 6.0 0.00 0.00 0.00 92 1007.1
20180920075208 47 161 4.0 6.0 0.00 0.00 0.00 92 1007.2
20180920075009 47 161 4.0 6.0 0.00 0.00 0.00 91 1007.2
20180920074809 47 161 3.0 7.0 0.00 0.01 0.00 92 1007.2
20180920074609 47 161 3.0 8.0 0.00 0.01 0.00 92 1007.3
20180920074409 47 161 2.0 8.0 0.00 0.02 0.00 92 1007.3
20180920074209 47 161 2.0 8.0 0.00 0.03 0.00 92 1007.3
20180920074009 47 161 2.0 8.0 0.00 0.04 0.00 92 1007.3
20180920073810 47 161 2.0 8.0 0.00 0.05 0.00 92 1007.3
20180920073609 47 161 3.0 7.0 0.00 0.05 0.00 92 1007.3